Weather History for Shenandoah, IA

Change the Weather History Date:

Thursday, January 19, 2012

  Actual Average Record
Temperature  
Mean Temperature 12 °F -  
Max Temperature 21 °F 34 °F 60 °F (2014)
Min Temperature 3 °F 12 °F -16 °F (2008)
Degree Days  
Heating Degree Days 53    
Moisture  
Dew Point -3 °F    
Average Humidity 57    
Maximum Humidity 73    
Minimum Humidity 44    
Precipitation  
Precipitation 0.00 in - - ()
Sea Level Pressure  
Sea Level Pressure 30.09 in    
Wind  
Wind Speed 13 mph (NNE)    
Max Wind Speed 20 mph    
Max Gust Speed 24 mph    
Visibility 10 miles    
Events      
Averages and records for this station are not official NWS values.
T = Trace of Precipitation, MM = Missing Value Source: NWS Daily Summary

Daily Weather History Graph

Daily Weather History Graph

Search for Another Location

Airport:

Trip Planner

Search our weather history database for the weather conditions in past years. The results will help you decide how hot, cold, wet, or windy it might be!

Date:

Astronomy

Jan. 19, 2012 Rise Set
Actual Time 7:41 AM CST 5:22 PM CST
Civil Twilight 7:12 AM CST 5:52 PM CST
Nautical Twilight 6:38 AM CST 6:26 PM CST
Astronomical Twilight 6:05 AM CST 6:59 PM CST
Moon 4:19 AM CST (1/19) 1:55 PM CST (1/19)
Length of Visible Light 10h 40m
Length of Day
9h 40m
Waning Crescent, 15% of the Moon is Illuminated
Jan 19
Waning Crescent
Jan 23
New
Jan 30
First Quarter
Feb 7
Full
Feb 14
Last Quarter

Hourly Weather History & Observations

Time (CST) Temp. Windchill Dew Point Humidity Pressure Visibility Wind Dir Wind Speed Gust Speed Precip Events Conditions
12:15 AM 21.2 °F 8.9 °F 12.2 °F 68% 29.93 in 10.0 mi North 12.7 mph - N/A   Mostly Cloudy
12:35 AM 19.4 °F 5.5 °F 10.4 °F 68% 29.94 in 10.0 mi North 15.0 mph - N/A   Mostly Cloudy
12:55 AM 17.6 °F 3.2 °F 10.4 °F 73% 29.95 in 10.0 mi North 15.0 mph 24.2 mph N/A   Overcast
1:15 AM 17.6 °F 2.7 °F 8.6 °F 68% 29.95 in 10.0 mi North 16.1 mph - N/A   Mostly Cloudy
1:35 AM 17.6 °F 3.7 °F 8.6 °F 68% 29.96 in 10.0 mi North 13.8 mph 23.0 mph N/A   Overcast
1:55 AM 15.8 °F -1.1 °F 6.8 °F 68% 29.96 in 10.0 mi North 19.6 mph 24.2 mph N/A   Mostly Cloudy
2:15 AM 15.8 °F -0.2 °F 5.0 °F 62% 29.96 in 10.0 mi North 17.3 mph - N/A   Scattered Clouds
2:35 AM 15.8 °F 0.3 °F 3.2 °F 58% 29.96 in 10.0 mi North 16.1 mph 20.7 mph N/A   Scattered Clouds
2:55 AM 14.0 °F -1.4 °F 3.2 °F 62% 29.97 in 10.0 mi NNE 15.0 mph - N/A   Scattered Clouds
3:15 AM 14.0 °F 0.5 °F 3.2 °F 62% 29.99 in 10.0 mi North 11.5 mph - N/A   Scattered Clouds
3:35 AM 14.0 °F 0.5 °F 3.2 °F 62% 30.00 in 10.0 mi North 11.5 mph - N/A   Scattered Clouds
3:55 AM 14.0 °F -0.2 °F 3.2 °F 62% 30.00 in 10.0 mi NNE 12.7 mph 17.3 mph N/A   Scattered Clouds
4:15 AM 12.2 °F -3.7 °F 3.2 °F 67% 30.00 in 10.0 mi NNE 15.0 mph - N/A   Scattered Clouds
4:35 AM 12.2 °F -3.1 °F 3.2 °F 67% 30.02 in 10.0 mi North 13.8 mph 18.4 mph N/A   Scattered Clouds
4:55 AM 12.2 °F -3.1 °F 3.2 °F 67% 30.01 in 10.0 mi NNE 13.8 mph - N/A   Scattered Clouds
5:15 AM 10.4 °F -4.8 °F 1.4 °F 67% 30.03 in 10.0 mi NNE 12.7 mph - N/A   Scattered Clouds
5:35 AM 10.4 °F -6.6 °F -2.2 °F 57% 30.04 in 10.0 mi NNE 16.1 mph 21.9 mph N/A   Scattered Clouds
5:55 AM 8.6 °F -8.9 °F -2.2 °F 62% 30.05 in 10.0 mi NNE 16.1 mph 19.6 mph N/A   Scattered Clouds
6:15 AM 8.6 °F -8.9 °F -2.2 °F 62% 30.05 in 10.0 mi NNE 16.1 mph - N/A   Scattered Clouds
6:35 AM 8.6 °F -7.0 °F -2.2 °F 62% 30.05 in 10.0 mi NNE 12.7 mph - N/A   Scattered Clouds
6:55 AM 8.6 °F -8.3 °F -2.2 °F 62% 30.09 in 10.0 mi NNE 15.0 mph - N/A   Scattered Clouds
7:15 AM 8.6 °F -7.0 °F -4.0 °F 57% 30.08 in 10.0 mi NNE 12.7 mph - N/A   Scattered Clouds
7:35 AM 8.6 °F -7.0 °F -4.0 °F 57% 30.10 in 10.0 mi NNE 12.7 mph - N/A   Scattered Clouds
7:55 AM 6.8 °F -12.4 °F -5.8 °F 56% 30.12 in 10.0 mi NNE 18.4 mph 24.2 mph N/A   Scattered Clouds
8:15 AM 6.8 °F -11.3 °F -5.8 °F 56% 30.12 in 10.0 mi NNE 16.1 mph - N/A   Clear
8:35 AM 6.8 °F -10.0 °F -5.8 °F 56% 30.12 in 10.0 mi NNE 13.8 mph - N/A   Clear
8:55 AM 6.8 °F -11.8 °F -7.6 °F 52% 30.11 in 10.0 mi NE 17.3 mph 21.9 mph N/A   Clear
9:15 AM 6.8 °F -11.8 °F -7.6 °F 52% 30.14 in 10.0 mi NE 17.3 mph - N/A   Clear
9:35 AM 8.6 °F -9.5 °F -7.6 °F 48% 30.16 in 10.0 mi NNE 17.3 mph 20.7 mph N/A   Clear
9:55 AM 8.6 °F -7.7 °F -5.8 °F 52% 30.16 in 10.0 mi NNE 13.8 mph - N/A   Clear
10:15 AM 8.6 °F -7.0 °F -5.8 °F 52% 30.16 in 10.0 mi NNE 12.7 mph - N/A   Clear
10:35 AM 8.6 °F -6.3 °F -5.8 °F 52% 30.18 in 10.0 mi NNE 11.5 mph - N/A   Clear
10:55 AM 8.6 °F -6.3 °F -5.8 °F 52% 30.18 in 10.0 mi NNE 11.5 mph - N/A   Clear
11:15 AM 8.6 °F -6.3 °F -5.8 °F 52% 30.17 in 10.0 mi NNE 11.5 mph - N/A   Clear
11:35 AM 8.6 °F -5.5 °F -5.8 °F 52% 30.18 in 10.0 mi North 10.4 mph - N/A   Clear
11:55 AM 8.6 °F -6.3 °F -5.8 °F 52% 30.18 in 10.0 mi NNE 11.5 mph - N/A   Clear
12:15 PM 8.6 °F -6.3 °F -5.8 °F 52% 30.16 in 10.0 mi NNE 11.5 mph - N/A   Clear
12:35 PM 8.6 °F -6.3 °F -5.8 °F 52% 30.16 in 10.0 mi NE 11.5 mph - N/A   Clear
12:55 PM 8.6 °F -7.0 °F -5.8 °F 52% 30.16 in 10.0 mi NNE 12.7 mph - N/A   Clear
1:15 PM 10.4 °F -4.8 °F -5.8 °F 48% 30.16 in 10.0 mi NNE 12.7 mph - N/A   Clear
1:35 PM 10.4 °F -4.1 °F -5.8 °F 48% 30.15 in 10.0 mi NE 11.5 mph - N/A   Clear
1:55 PM 10.4 °F -3.3 °F -5.8 °F 48% 30.15 in 10.0 mi NNE 10.4 mph - N/A   Clear
2:15 PM 10.4 °F -2.4 °F -5.8 °F 48% 30.15 in 10.0 mi NNE 9.2 mph - N/A   Clear
2:35 PM 10.4 °F -4.1 °F -5.8 °F 48% 30.14 in 10.0 mi NE 11.5 mph - N/A   Clear
3:15 PM 10.4 °F -3.3 °F -4.0 °F 52% 30.14 in 10.0 mi NNE 10.4 mph - N/A   Clear
3:35 PM 10.4 °F -3.3 °F -5.8 °F 48% 30.13 in 10.0 mi NE 10.4 mph - N/A   Clear
3:55 PM 10.4 °F -2.4 °F -5.8 °F 48% 30.13 in 10.0 mi NE 9.2 mph - N/A   Clear
4:15 PM 10.4 °F -2.4 °F -7.6 °F 44% 30.14 in 10.0 mi NE 9.2 mph - N/A   Clear
4:35 PM 10.4 °F -0.4 °F -5.8 °F 48% 30.14 in 10.0 mi ENE 6.9 mph - N/A   Clear
4:55 PM 8.6 °F -4.7 °F -5.8 °F 52% 30.12 in 10.0 mi NE 9.2 mph - N/A   Clear
5:15 PM 8.6 °F -1.3 °F -5.8 °F 52% 30.12 in 10.0 mi ENE 5.8 mph - N/A   Scattered Clouds
5:35 PM 8.6 °F -1.3 °F -5.8 °F 52% 30.12 in 10.0 mi NE 5.8 mph - N/A   Clear
5:55 PM 6.8 °F -2.0 °F -5.8 °F 56% 30.13 in 10.0 mi ENE 4.6 mph - N/A   Scattered Clouds
6:15 PM 6.8 °F -3.5 °F -5.8 °F 56% 30.13 in 10.0 mi ENE 5.8 mph - N/A   Scattered Clouds
6:35 PM 6.8 °F -2.0 °F -5.8 °F 56% 30.13 in 10.0 mi East 4.6 mph - N/A   Scattered Clouds
6:55 PM 6.8 °F -2.0 °F -5.8 °F 56% 30.14 in 10.0 mi East 4.6 mph - N/A   Scattered Clouds
7:15 PM 6.8 °F -0.1 °F -5.8 °F 56% 30.14 in 10.0 mi ENE 3.5 mph - N/A   Scattered Clouds
7:35 PM 3.2 °F -6.2 °F -5.8 °F 66% 30.15 in 10.0 mi NNE 4.6 mph - N/A   Scattered Clouds
7:55 PM 3.2 °F -6.2 °F -5.8 °F 66% 30.14 in 10.0 mi NE 4.6 mph - N/A   Scattered Clouds
8:15 PM 3.2 °F -6.2 °F -5.8 °F 66% 30.12 in 10.0 mi NE 4.6 mph - N/A   Scattered Clouds
8:35 PM 3.2 °F -6.2 °F -5.8 °F 66% 30.12 in 10.0 mi ENE 4.6 mph - N/A   Scattered Clouds
8:55 PM 5.0 °F -4.1 °F -5.8 °F 61% 30.12 in 10.0 mi NE 4.6 mph - N/A   Scattered Clouds
9:15 PM 3.2 °F -7.8 °F -5.8 °F 66% 30.12 in 10.0 mi NE 5.8 mph - N/A   Scattered Clouds
9:35 PM 5.0 °F - -4.0 °F 66% 30.13 in 10.0 mi Calm Calm - N/A   Scattered Clouds
9:55 PM 6.8 °F - -4.0 °F 61% 30.13 in 10.0 mi Calm Calm - N/A   Scattered Clouds
10:15 PM 8.6 °F -1.3 °F -4.0 °F 57% 30.11 in 10.0 mi East 5.8 mph - N/A   Clear
10:35 PM 8.6 °F -4.7 °F -4.0 °F 57% 30.11 in 10.0 mi East 9.2 mph - N/A   Scattered Clouds
10:55 PM 8.6 °F -2.6 °F -4.0 °F 57% 30.10 in 10.0 mi East 6.9 mph - N/A   Scattered Clouds
11:15 PM 8.6 °F -3.7 °F -4.0 °F 57% 30.11 in 10.0 mi East 8.1 mph - N/A   Scattered Clouds
11:35 PM 8.6 °F -2.6 °F -4.0 °F 57% 30.09 in 10.0 mi East 6.9 mph - N/A   Scattered Clouds
11:55 PM 8.6 °F -5.5 °F -2.2 °F 62% 30.07 in 10.0 mi East 10.4 mph - N/A   Scattered Clouds